Location: Little Maitland River
(43.8022°N, 81.1549°W)
Time: 23:35:31
(UTC+00:00)

Cosmos 1758 Rocket - Pass Details

Date: 09 December 2025
Orbit: 595 x 629 km, 82.5° (Epoch: 19 January)

Event Time Altitude Azimuth Distance (km) Brightness Sun altitude
Rises 11:38:31 0° 189° (S) 2,897 7.2 -11.9°
Reaches altitude 10° 11:40:45 10° 190° (S) 1,992 6.3 -11.6°
Maximum altitude 11:45:10 82° 278° (W) 634 3.5 -10.8°
Drops below altitude 10° 11:49:36 10° 7° (N) 1,991 6.0 -10.1°
Sets 11:51:49 0° 8° (N) 2,896 6.8 -9.7°
